Flag Weather past 2 weeks in Germantown, Maryland, U.S.A.

Now
57 °F

Sunny.


Feels Like: 56 °F
Forecast: 44 / 55 °F
Wind: 6 mph from Northwest

Location: Frederick Municipal Airport

Current Time: Nov 25, 2014 at 4:15:24 PM

Latest Report: Nov 25, 2014 at 2:45 PM


Visibility: 10 mi

Pressure: 30.06 "Hg

Humidity: 29%

Dew point: 25 °F

Location of GermantownLocation

Historic Weather in Germantown — Graph

°F

Germantown temperature yesterday

Maximum temperature yesterday: 72 °F (at 10:45 AM)
Minimum temperature yesterday: 50 °F (at 12:00 AM)
Average temperature yesterday: 64 °F

Past Weeks' High & Low Weather Summary

 TemperatureHumidityPressure
High73 °F (Nov 11, 1:55 PM)94% (Nov 12, 4:05 AM)32.97 "Hg (Nov 12, 4:05 AM)
Low19 °F (Nov 22, 6:45 AM)18% (Nov 21, 12:55 PM)29.58 "Hg (Nov 17, 1:48 PM)
Average42 °F56%30.13 "Hg
* Reported Nov 10 2:45 PM — Nov 25 2:45 PM, Germantown, Weather by CustomWeather, © 2014

Note: Actual official high and low records may vary slightly from our data, if they occured in-between our weather recording intervals... More about our weather records

Advertising

Germantown weather history for previous 24 hours

 ConditionsComfort  
Time TempWeatherWind HumidityBarometerVisibility
2:45 PM
Nov 25
57 °FSunny.6 mph29%30.06 "Hg10 mi
1:47 PM59 °FSunny.8 mph25%30.07 "Hg10 mi
12:50 PM55 °FSunny.7 mph33%30.07 "Hg10 mi
11:50 AM55 °FSunny.7 mph33%30.10 "Hg10 mi
10:50 AM54 °FSunny.9 mph35%30.11 "Hg10 mi
9:50 AM54 °FSunny.7 mph38%30.09 "Hg10 mi
8:50 AM52 °FSunny.7 mph41%30.08 "Hg10 mi
7:50 AM52 °FSunny.9 mph41%30.04 "Hg10 mi
6:50 AM52 °FClear.7 mph44%30.02 "Hg10 mi
5:25 AM54 °FClear.No wind44%29.98 "Hg10 mi
5:05 AM54 °FClear.5 mph44%29.97 "Hg10 mi
4:45 AM55 °FClear.9 mph44%29.96 "Hg10 mi
4:25 AM55 °FClear.12 mph44%29.94 "Hg10 mi
4:05 AM55 °FClear.3 mph47%29.94 "Hg10 mi
3:45 AM57 °FClear.7 mph44%29.92 "Hg10 mi
3:25 AM59 °FThundershowers. Clear.13 mph42%29.91 "Hg10 mi
3:05 AM59 °FClear.14 mph42%29.91 "Hg10 mi
2:45 AM55 °FClear.9 mph51%29.89 "Hg10 mi
2:25 AM52 °FClear.6 mph72%29.87 "Hg10 mi
2:05 AM52 °FClear.5 mph77%29.85 "Hg10 mi
1:45 AM57 °FClear.5 mph67%29.84 "Hg10 mi
1:25 AM55 °FClear.No wind67%29.83 "Hg10 mi
1:05 AM55 °FClear.3 mph72%29.83 "Hg10 mi
12:45 AM55 °FClear.6 mph72%29.82 "Hg10 mi
12:25 AM55 °FClear.5 mph72%29.82 "Hg10 mi
12:00 AM57 °FClear.5 mph72%29.81 "Hg10 mi
11:40 PM
Nov 24
55 °FPassing clouds.No wind77%29.81 "Hg10 mi
10:40 PM63 °FClear.7 mph64%29.80 "Hg10 mi
10:20 PM61 °FClear.6 mph68%29.79 "Hg10 mi
10:00 PM61 °FClear.10 mph68%29.78 "Hg10 mi
9:40 PM64 °FClear.12 mph60%29.76 "Hg10 mi
9:20 PM64 °FClear.13 mph60%29.72 "Hg10 mi
9:00 PM64 °FClear.12 mph60%29.72 "Hg10 mi
8:40 PM64 °FClear.15 mph60%29.72 "Hg10 mi
8:20 PM66 °FClear.15 mph56%29.71 "Hg10 mi
8:00 PM66 °FClear.12 mph56%29.70 "Hg10 mi
7:40 PM68 °FClear.15 mph53%29.69 "Hg10 mi
6:45 PM68 °FClear.12 mph53%29.67 "Hg10 mi
5:50 PM70 °FClear.14 mph46%29.66 "Hg10 mi
4:45 PM70 °FSunny.14 mph46%29.64 "Hg10 mi
Weather by CustomWeather, © 2014

See weather overviewHow to use our weather pages